www.pogodaiklimat.ru

Погода и климат >> Архив погоды >> Корея >> Сувон


ПОГОДА в Сувоне

  • Прогноз погоды в Сувоне
  • Монитор погоды в Сувоне

АРХИВ ПОГОДЫ в Сувоне

Время (UTC), дата Ветер
(напр.,м/с)
 
Видим.   Явления Облачность Т
(С)
Тd
(С)
f
(%)
Тe
(С)
Тes
(С)
Комфортность P
(гПа)
Po
(гПа)
Тmin
(С)
Tmax
(С)
R
(мм)
R24
(мм)
S
(см)
06 15.08 С 3 15 км слаб. дождь 10/4 600 м
[Frnb As op]
+26.0 +21.6 77 +33 +35 очень
душно
992.4 988.0 27
09 15.08 С 1 20 км в посл. час дождь 9/5 1000 м
[Sc As op]
+25.6 +21.4 78 +33 +33 очень
душно
991.0 986.5
12 15.08 СЗ 2 20 км 8/8 300 м
[Sc]
+24.7 +20.8 79 +31 +31 очень
душно
991.5 987.1 +29.8 28
15 15.08 20 км н/о +23.8 +20.1 80 +29 +29 душно 992.0 987.5
18 15.08 З 1 20 км 9/0
[Ac trans]
+23.5 +19.8 80 +29 +29 душно 992.4 987.9
21 15.08 ЮЗ 1 20 км 9// 600 м
[Sc]
+23.7 +19.2 76 +29 +29 душно 993.6 989.1
00 16.08 Ю 3 20 км в посл. час дождь 9/9 600 м
[Sc]
+25.4 +21.8 80 +33 +33 очень
душно
994.6 990.1 +23.4 1
03 16.08 20 км в посл. час дождь н/о +28.5 +22.0 68 +37 +39 очень
душно
994.9 990.5
06 16.08 З 4 20 км 4/4 600 м
[Sc]
+28.2 +22.8 73 +38 +42 очень
душно
995.6 991.2
09 16.08 З 3 18 км 3/3 1000 м
[Sc]
+27.7 +21.4 69 +35 +36 очень
душно
996.9 992.5
12 16.08 З 2 15 км 3/0
[Ci fib]
+24.3 +20.4 79 +30 +30 очень
душно
999.0 994.5 +29.5 0.0
15 16.08 ЮЗ 2 11 км 8/5 600 м
[Sc Ac trans]
+24.2 +20.1 78 +30 +30 очень
душно
1000.4 995.9
18 16.08 ЮЗ 2 11 км 8/8 600 м
[Sc]
+24.4 +20.9 81 +31 +31 очень
душно
1000.6 996.1
21 16.08 8000 м дымка н/о +24.1 +21.0 83 +30 +30 очень
душно
1000.8 996.3
00 17.08 З 1 12 км 10/6 600 м
[Sc As op]
+26.4 +21.6 75 +34 +34 очень
душно
1001.3 996.8 +23.3 0.0
03 17.08 СЗ 2 14 км слаб. дождь 9// 600 м
[Sc]
+26.2 +22.4 80 +34 +44 очень
душно
1001.1 996.6
06 17.08 Ю 3 14 км в посл. час дождь 9// 600 м
[Sc]
+25.5 +21.9 81 +33 +39 очень
душно
1001.0 996.5 7
09 17.08 З 2 15 км 3/3 1000 м
[Sc]
+27.0 +21.0 70 +34 +35 очень
душно
1001.2 996.7
12 17.08 З 3 15 км ясно +23.3 +19.4 79 +30 +30 очень
душно
1003.6 999.1 +27.6 7
15 17.08 З 1 15 км 3/0
[Ci fib]
+21.8 +19.1 85 +27 +27 душно 1005.0 1000.4
18 17.08 ЮВ 2 13 км 1/0
[Ci fib]
+20.8 +18.9 89 +26 +26 душно 1005.4 1000.8
21 17.08 В 1 5000 м дымка 8/6 1000 м
[Sc Ci fib]
+21.0 +18.9 88 +27 +27 душно 1006.3 1001.7
00 18.08 Ю 3 8000 м дымка 4/4 1000 м
[Sc]
+23.8 +19.5 77 +29 +33 душно 1007.6 1003.1 +20.8 0.0
03 18.08 З 3 20 км 8/5 1000 м
[Cu med, cong Ci fib]
+27.3 +18.0 57 +32 +38 очень
душно
1007.7 1003.2
06 18.08 З 3 20 км 3/1 600 м
[Cu med, cong Ci fib]
+29.4 +14.7 41 +32 +41 душно 1006.8 1002.4
09 18.08 З 3 20 км ясно +27.6 +15.9 49 +31 +32 душно 1006.5 1002.0
12 18.08 З 3 20 км ясно +23.9 +18.3 71 +28 +28 душно 1008.3 1003.8 +29.7
15 18.08 З 1 18 км 8/0
[Ci fib]
+21.7 +17.8 78 +26 +26 душно 1009.1 1004.5
18 18.08 штиль 0 18 км 3/0
[Ci fib]
+20.8 +17.7 82 +24 +24 комфорт 1009.4 1004.8
21 18.08 З 1 14 км 3/0
[Ci fib]
+20.2 +17.5 84 +24 +24 комфорт 1010.2 1005.6
00 19.08 СЗ 2 15 км 8/0
[Ci fib]
+24.3 +18.0 68 +29 +35 душно 1010.6 1006.1 +20.0
03 19.08 З 2 15 км 6/3 600 м
[Cu med, cong Ci fib]
+28.9 +17.7 51 +33 +45 очень
душно
1010.1 1005.6
06 19.08 СЗ 2 18 км 8/3 1500 м
[Sc Ci fib]
+30.7 +17.7 46 +35 +41 очень
душно
1008.8 1004.3
09 19.08 З 3 15 км 5/4 1500 м
[Sc Ci fib]
+29.0 +20.4 60 +36 +36 очень
душно
1008.7 1004.2
12 19.08 З 1 18 км ясно +25.9 +18.0 62 +30 +30 душно 1009.7 1005.2 +31.1
15 19.08 штиль 0 20 км 1/1 1000 м
[Sc]
+24.0 +17.9 69 +28 +28 душно 1010.4 1005.9
18 19.08 штиль 0 20 км ясно +23.0 +16.7 68 +28 +28 душно 1010.7 1006.1
21 19.08 В 1 18 км ясно +23.5 +16.7 66 +27 +27 душно 1010.9 1006.4
00 20.08 В 3 18 км ясно +26.7 +16.3 53 +30 +37 душно 1010.7 1006.2 +22.6
03 20.08 ЮВ 3 20 км 1/1 1000 м
[Sc]
+29.9 +15.2 41 +32 +46 жарко 1010.3 1005.9
06 20.08 ЮВ 3 16 км 5/3 1000 м
[Cu Sc Ci fib]
+31.1 +14.6 37 +33 +39 душно 1008.7 1004.3
09 20.08 В 3 15 км 5/1 1500 м
[Sc Cs]
+30.7 +13.4 35 +32 +33 жарко 1008.3 1003.8
12 20.08 ЮВ 2 15 км 3/3 1000 м
[Sc]
+27.8 +15.7 48 +31 +31 душно 1009.1 1004.6 +31.9
15 20.08 В 3 12 км 6/0
[Ac trans]
+26.2 +15.8 53 +29 +29 жарко 1009.1 1004.6
18 20.08 В 3 12 км 8/0
[Ci fib]
+25.0 +14.1 51 +27 +27 жарко 1008.8 1004.3
21 20.08 В 2 12 км 6/5 1000 м
[Sc Ac trans]
+24.3 +14.1 53 +27 +27 жарко 1009.1 1004.6
00 21.08 ЮВ 4 20 км 10/6 600 м
[Sc As trans]
+26.2 +16.1 54 +30 +30 душно 1009.7 1005.2 +24.1
03 21.08 ЮВ 1 12 км 8/1 1500 м
[Sc Ac trans Ci fib]
+29.3 +17.1 48 +33 +44 душно 1009.0 1004.5
06 21.08 З 3 10 км 8/3 1500 м
[Cu Sc Ci fib]
+31.0 +18.3 47 +36 +42 очень
душно
1007.7 1003.3
09 21.08 З 2 10 км 9/0
[Ac trans Ci sp]
+28.7 +17.2 50 +33 +33 очень
душно
1007.3 1002.8
12 21.08 10 км 10/6 1000 м
[Sc As op]
+27.0 +18.2 59 1008.0 1003.5 +31.3
15 21.08 СЗ 1 5000 м слаб. дождь 10/4 1000 м
[Sc As op]
+25.8 +19.6 69 +31 +31 очень
душно
1008.0 1003.5
18 21.08 штиль 0 5000 м дымка 6/0
[Ci fib]
+24.5 +20.1 76 +30 +30 очень
душно
1006.9 1002.4
21 21.08 штиль 0 4000 м мгла 9/0
[As op]
+24.8 +18.7 69 +30 +30 душно 1006.9 1002.4
00 22.08 СЗ 1 6000 м мгла 8/0
[Ac trans]
+26.1 +18.7 64 +31 +36 очень
душно
1006.8 1002.3 +24.3 0.0

 

Местоположение метеостанции Сувон (Корея): широта 37.27 долгота 126.98 высота над уровнем моря 35 м.

В архиве по умолчанию представлена погода в Сувоне за последнюю неделю. Архивные данные за месяц целиком и за предыдущие месяцы, начиная с января 2011 года, Вы можете получить, выбрав интересующий диапазон дат из раскрывающегося списка и нажав кнопку "Ввод!".


*Определитесь, кто Вы:
робот инопланетянин человек

Внимание! Время в таблицах - всемирное. Для получения местного времени необходимо прибавить поправку, которая равна 9 ч.

Смотрите также архив погоды в соседних городах и на ближайших метеорологических станциях:

Погода в Сеуле (Корея) (33 км)
Погода на Базе Camp Humphreys (Корея) (36 км)
Погода в Инчхоне (Корея) (38 км)
Погода в Ичхоне (Корея) (44 км)
Погода в Чхонане (Корея) (57 км)
Погода в Сосане (Корея) (70 км)
Погода в Тондучхоне (Корея) (70 км)
Погода в Мунсане (Корея) (71 км)
Погода в Хонсоне (Корея) (73 км)
Погода в Чхонджу (Корея) (83 км)

Пояснения к столбцам:

Ветер - указаны скорость ветра в м/с - средняя за 10 мин, порывы в срок и между сроками (в фигурных скобках) и направление, откуда дует ветер: С - северный, СВ - северо-восточный, В - восточный, ЮВ - юго-восточный, Ю - южный, ЮЗ - юго-западный, З - западный, СЗ - северо-западный.
Видимость - горизонтальная дальность видимости в метрах или километрах. При видимости от 1 до 10 км при отсутствии осадков обычно наблюдается дымка, при ухудшении видимости до 1 км и менее - туман. В сухую погоду видимость может ухудшаться дымом, пылью или мглою.
Явления - указаны атмосферные явления, наблюдавшиеся в срок или в последний час перед сроком; фигурными скобками обозначены явления, наблюдавшиеся между сроками (за 1-3 часа до срока); квадратными скобками обозначены град или гололедные отложения с указанием их диаметра в мм.
Облачность - указаны через наклонную черту общая и нижняя облачность в баллах и высота нижней границы облаков в метрах; квадратными скобками обозначены формы облаков: Ci - перистые, Cs - перисто-слоистые, Cc - перисто-кучевые, Ac - высококучевые, As - высокослоистые, Sc - слоисто-кучевые, Ns - слоисто-дождевые, Cu - кучевые, Cb - кучево-дождевые. Подробнее классификацию облаков см. в Атласе облаков (PDF).
T - Температура воздуха - температура, измеренная на высоте 2 м над землей.
Td - Температура точки росы - температура, при понижении до которой содержащийся в воздухе водяной пар достигнет насыщения.
f - Относительная влажность воздуха - влажноcть воздуха, измеренная на высоте 2 м над землей.
Te - Эффективная температура - температура, которую ощущает одетый по сезону человек в тени. Характеристика душности погоды. При расчете учитывается влияние влажности воздуха и скорости ветра на теплоощущения человека.
Tes - Эффективная температура на солнце - температура, которую ощущает человек, с поправкой на солнечный нагрев. Характеристика знойности погоды. Зависит от высоты солнца над горизонтом, облачности и скорости ветра. Ночью, в пасмурную погоду, а также при ветре 12 м/с и более поправка равна нулю.
P - Атмосферное давление - приведенное к уровню моря атмосферное давление.
Po - Атмосферное давление - измеренное на уровне метеостанции атмосферное давление.
Tmin - Минимальная температура - минимум температуры воздуха на высоте 2 м над землей.
Tmax - Максимальная температура - максимум температуры воздуха на высоте 2 м над землей.
R - Количество осадков - Количество выпавших осадков за период времени, мм. При наведении курсора мыши на число - период времени, за который выпало указанное количество осадков.
R24 - Количество осадков - Количество выпавших осадков за 24 часа, мм.
S - Снежный покров - Высота снежного покрова, см. При наведении курсора мыши на число - состояние снежного покрова и степень покрытия местности в баллах.